weather.gov     
National Weather Service

Terminal Aerodrome Forecast
NWS Homepage
This page is being discontinued on March 12, 2014.
The same data is available at this site. Please update your bookmarks.
Thank you, and we apologize for the inconvenience.
Please send an email to SR-SRH.Webmaster@noaa.gov with any concerns.


Current Version
Previous Version:    01  02  03  04  05  06  07  08  09  10  11  12  13  14  15  16  17  18  19  20  21  22  23  24  25  26  27  28  29  30  
   31  
[Printable]
630
FTUS43 KAPX 300600 AAA
TAFAPN
TAF AMD
KAPN 300635Z 3007/3106 23006KT 5SM -TSRA BR BKN040CB OVC110
      WS020/21038KT
     FM300730 19005KT P6SM BKN100
     FM301400 19009G16KT P6SM VCSH SCT035 BKN140
     FM302000 19008KT 4SM -TSRA BR OVC030CB
     FM310000 20005KT P6SM BKN035
     FM310400 25005KT 6SM BR OVC008=


U.S. Dept. of Commerce
NOAA National Weather Service
1325 East West Highway
Silver Spring, MD 20910
E-mail: w-nws.webmaster@noaa.gov
Page last modified: May 16, 2007
NATIONAL WEATHER SERVICE: for Safety, for Work, for Fun - FOR LIFE